Elm City, NC

2:43 PM EST on January 18, 2017 (GMT -0500)
Rocky Mount-Wilson Regional

Weather History for KRWI - January, 2013

Change the Weather History Date:

Tuesday, January 29, 2013

  Actual Average Record
Temperature  
Mean Temperature 62 °F -  
Max Temperature 73 °F 53 °F 78 °F (1970)
Min Temperature 50 °F 29 °F 10 °F (2014)
Degree Days  
Heating Degree Days 4    
Growing Degree Days 12 (Base 50)    
Moisture  
Dew Point 51 °F    
Average Humidity 73    
Maximum Humidity 86    
Minimum Humidity 52    
Precipitation  
Precipitation 0.00 in - - ()
Sea Level Pressure  
Sea Level Pressure 30.16 in    
Wind  
Wind Speed 8 mph (SSW)    
Max Wind Speed 12 mph    
Max Gust Speed 20 mph    
Visibility 9 miles    
Events      
Averages and records for this station are not official NWS values.
T = Trace of Precipitation, MM = Missing Value Source: NWS Daily Summary

Daily Weather History Graph

Daily Weather History Graph

Search for Another Location

Airport or City:

Trip Planner

Search our weather history database for the weather conditions in past years. The results will help you decide how hot, cold, wet, or windy it might be!

Date:

Astronomy

Jan. 29, 2013 Rise Set
Actual Time 7:13 AM EST 5:35 PM EST
Civil Twilight 6:46 AM EST 6:03 PM EST
Nautical Twilight 6:16 AM EST 6:33 PM EST
Astronomical Twilight 5:45 AM EST 7:03 PM EST
Moon 8:22 PM EST (1/29) 8:16 AM EST (1/29)
Length of Visible Light 11h 16m
Length of Day
10h 21m
Waning Gibbous, 94% of the Moon is Illuminated
Jan 29
Waning Gibbous
Feb 3
Last Quarter
Feb 10
New
Feb 17
First Quarter
Feb 25
Full

Hourly Weather History & Observations

Time (EST) Temp. Dew Point Humidity Pressure Visibility Wind Dir Wind Speed Gust Speed Precip Events Conditions
12:06 AM 53.6 °F 46.4 °F 77% 30.23 in 10.0 mi SW 9.2 mph - N/A   Overcast
12:53 AM 53.1 °F 46.9 °F 80% 30.22 in 10.0 mi SW 10.4 mph - N/A   Overcast
1:53 AM 51.1 °F 46.0 °F 83% 30.21 in 10.0 mi SW 9.2 mph - N/A   Clear
2:53 AM 50.0 °F 45.0 °F 83% 30.21 in 10.0 mi SW 9.2 mph - N/A   Clear
3:53 AM 50.0 °F 45.0 °F 83% 30.19 in 9.0 mi SW 8.1 mph - N/A   Clear
4:53 AM 50.0 °F 45.0 °F 83% 30.18 in 8.0 mi SW 8.1 mph - N/A   Clear
5:53 AM 50.0 °F 45.0 °F 83% 30.19 in 8.0 mi SW 6.9 mph - N/A   Partly Cloudy
6:53 AM 51.1 °F 46.0 °F 83% 30.20 in 8.0 mi WSW 6.9 mph - N/A   Partly Cloudy
7:53 AM 51.1 °F 46.9 °F 86% 30.21 in 7.0 mi WSW 8.1 mph - N/A   Scattered Clouds
8:53 AM 54.0 °F 48.0 °F 80% 30.22 in 7.0 mi SW 6.9 mph - N/A   Clear
9:53 AM 59.0 °F 50.0 °F 72% 30.21 in 8.0 mi WSW 11.5 mph 17.3 mph N/A   Clear
10:53 AM 64.0 °F 52.0 °F 65% 30.21 in 9.0 mi WSW 8.1 mph - N/A   Clear
11:53 AM 69.1 °F 53.1 °F 57% 30.18 in 10.0 mi WSW 11.5 mph 19.6 mph N/A   Clear
12:53 PM 72.0 °F 54.0 °F 53% 30.14 in 10.0 mi WSW 6.9 mph - N/A   Clear
1:53 PM 72.0 °F 54.0 °F 53% 30.11 in 10.0 mi WSW 10.4 mph - N/A   Clear
2:53 PM 72.0 °F 55.0 °F 55% 30.11 in 10.0 mi SW 5.8 mph - N/A   Clear
3:53 PM 73.9 °F 55.0 °F 52% 30.10 in 10.0 mi South 8.1 mph - N/A   Clear
4:53 PM 71.1 °F 54.0 °F 55% 30.10 in 10.0 mi SSW 5.8 mph - N/A   Clear
5:53 PM 63.0 °F 53.1 °F 70% 30.10 in 10.0 mi South 4.6 mph - N/A   Clear
6:53 PM 63.0 °F 54.0 °F 72% 30.10 in 10.0 mi SSE 3.5 mph - N/A   Clear
7:53 PM 59.0 °F 52.0 °F 78% 30.10 in 10.0 mi SSE 4.6 mph - N/A   Clear
8:53 PM 62.1 °F 54.0 °F 75% 30.10 in 10.0 mi South 5.8 mph - N/A   Clear
9:53 PM 60.1 °F 53.1 °F 78% 30.10 in 10.0 mi South 5.8 mph - N/A   Clear
10:53 PM 62.1 °F 55.0 °F 78% 30.10 in 10.0 mi SSE 4.6 mph - N/A   Clear
11:53 PM 60.1 °F 55.0 °F 83% 30.09 in 10.0 mi SSE 4.6 mph - N/A   Clear